Location: Waning Moon II Observatory
(30.3730°N, 89.7620°W)
Time: 10:46:47
(UTC-06:00)

Cosmos 1825 Rocket - Visible Passes

Search period start: 16 December 2017 00:00
Search period end: 26 December 2017 00:00
Orbit: 603 x 632 km, 82.5° (Epoch: 16 December)

Date Brightness Start Highest point End Pass type
(mag) Time Alt. Az. Time Alt. Az. Time Alt. Az.
21 Dec 6.6 06:01:41 10° NE 06:03:09 11° ENE 06:04:38 10° E visible
22 Dec 6.1 06:16:46 10° NNE 06:20:14 23° ENE 06:23:41 10° SE visible
24 Dec 5.7 19:14:44 10° S 19:15:47 17° S 19:15:47 17° S visible
25 Dec 6.6 05:31:24 10° NE 05:32:58 12° ENE 05:34:34 10° E visible
25 Dec 5.5 19:31:47 10° SSW 19:33:40 24° SW 19:33:40 24° SW visible
